Regional Weather Roundup
Issued by NWS

Home | Current Version | Previous Version | Text Only | Print | Product List | Glossary Off
Versions: 1 2 3 4 5 6 7 8 9 10 11 12 13 14 15 16 17 18 19 20 21 22 23 24 25 26 27 28 29 30 31 32 33 34 35 36 37 38 39 40 41 42 43 44 45 46 47 48 49 50

000
ASUS43 KFSD 182110
RWRSD

WEATHER ROUNDUP FOR SOUTH DAKOTA
NATIONAL WEATHER SERVICE SIOUX FALLS SD
400 PM CDT SAT APR 18 2015

NOTE: "FAIR" INDICATES FEW OR NO CLOUDS BELOW 12,000 FEET WITH NO
SIGNIFICANT WEATHER AND/OR OBSTRUCTIONS TO VISIBILITY.


SDZ001>005-009-010-012>017-182200-
NORTHWEST AND NORTH CENTRAL SOUTH DAKOTA

CITY           SKY/WX    TMP DP  RH WIND       PRES   REMARKS
BUFFALO          N/A     55  36  48 SE20      29.87F
FAITH            N/A     49  44  83 N9        29.92F
MOBRIDGE       CLOUDY    63  27  25 NW7       29.90F
$$

SDZ012>016-024>037-041>051-057-063-072>074-182200-
SOUTHWEST AND SOUTH CENTRAL SOUTH DAKOTA

CITY           SKY/WX    TMP DP  RH WIND       PRES   REMARKS
RAPID CTY ARPT LGT RAIN  46  44  93 N10       29.93S FOG
PIERRE         CLOUDY    53  45  74 N9        29.87F
CUSTER         CLOUDY    42  38  85 N5        29.92F FOG
ELLSWORTH AFB  LGT RAIN  46  44  93 N6        29.93  FOG
PHILIP         CLOUDY    53  46  77 W9        29.90S
PINE RIDGE     CLOUDY    54  45  71 NW12      29.89F
SPEARFISH      PTSUNNY   46  37  71 E3        29.95F
WINNER         CLOUDY    60  52  74 SE8       29.86F
$$

SDZ004>011-016>023-039-040-182200-
NORTHEAST SOUTH DAKOTA

CITY           SKY/WX    TMP DP  RH WIND       PRES   REMARKS
ABERDEEN       CLOUDY    70  26  19 SE10      29.88F
WATERTOWN      CLOUDY    69  32  25 SE13G18   29.89F
BROOKINGS      CLOUDY    64  46  52 S17       29.90F
SISSETON         N/A     75  22  13 SE14G25   29.88F
$$

SDZ017-020-022-023-036>040-048>070-182200-
SOUTHEAST SOUTH DAKOTA

CITY           SKY/WX    TMP DP  RH WIND       PRES   REMARKS
SIOUX FALLS    LGT RAIN  59  56  89 E10       29.86F
HURON          LGT RAIN  55  52  89 SE7       29.88F FOG
CHAMBERLAIN    CLOUDY    54  51  90 E7        29.87F
MITCHELL       CLOUDY    55  53  93 SE8       29.88F
YANKTON        CLOUDY    61  55  82 SE13      29.86F
$$

ABBREVIATIONS USED IN REMARKS
   TC - TEMPERATURE IN CELSIUS
  WCI - WIND CHILL INDEX
   HX - HEAT INDEX
  VSB - VISIBILITY



USA.gov is the U.S. government's official web portal to all federal, state and local government web resources and services.